Regional Weather Roundup
Issued by NWS Green Bay, WI

Home | Current Version | Previous Version | Text Only | Print | Product List | Glossary On
Versions: 1 2 3 4 5 6 7 8 9 10 11 12 13 14 15 16 17 18 19 20 21 22 23 24 25 26 27 28 29 30 31 32 33 34 35 36 37 38 39 40 41 42 43 44 45 46 47 48 49 50
000
ASUS43 KGRB 021800
RWRGRB

NORTH-CENTRAL AND NORTHEAST WISCONSIN REGIONAL WEATHER ROUNDUP
NATIONAL WEATHER SERVICE GREEN BAY WI
100 PM CDT WED SEP 02 2015

WIZ005-009-010>012-018-019-021900-
NORTH CENTRAL WISCONSIN

CITY           SKY/WX    TMP DP  RH WIND       PRES   REMARKS
IRONWOOD       CLOUDY    66  64  94 SE3       30.00S
MANITOWISH WTR NOT AVBL
ARBOR VITAE    NOT AVBL
EAGLE RIVER    NOT AVBL
LAND O LAKES   NOT AVBL
RHINELANDER    LGT RAIN  69  66  90 NE5       30.04F
PHILLIPS       CLOUDY    67  65  94 E7        30.03F
ANTIGO         NOT AVBL
TOMAHAWK       NOT AVBL
MERRILL        NOT AVBL
$$

WIZ013-073-021900-
NORTHEAST WISCONSIN

CITY           SKY/WX    TMP DP  RH WIND       PRES   REMARKS
IRON MOUNTAIN  CLOUDY    75  67  76 NE7       30.00R
MARINETTE      PTSUNNY   77  66  69 NE10G21   29.97R
$$

WIZ017-030-035>037-045-021900-
CENTRAL WISCONSIN

CITY           SKY/WX    TMP DP  RH WIND       PRES   REMARKS
MEDFORD        NOT AVBL
WAUSAU         MOSUNNY   80  69  69 E5        29.97F
MOSINEE        PTSUNNY   81  70  69 SW3       29.99F
MARSHFIELD     CLOUDY    82  68  62 E3        29.98F
WISC RAPIDS    FAIR      85  66  53 SW12      29.98F
STEVENS POINT  NOT AVBL
WAUPACA        NOT AVBL
SHAWANO        NOT AVBL
CLINTONVILLE   MOSUNNY   86  68  54 SW3       29.97F
WAUTOMA        NOT AVBL
$$

WIZ038-039-048-051-021900-
FOX VALLEY

CITY           SKY/WX    TMP DP  RH WIND       PRES   REMARKS
NWS GREEN BAY  PTSUNNY   86  72  62 SW9       29.97S HX  92
APPLETON       MOSUNNY   84  66  54 SW10      29.97F
OSHKOSH        SUNNY     86  70  58 SW7       29.98F HX  90
FOND DU LAC    MOSUNNY   85  69  58 SW14      29.99F
$$

WIZ022-050-052-021900-
EAST CENTRAL WISCONSIN

CITY           SKY/WX    TMP DP  RH WIND       PRES   REMARKS
EPHRAIM        NOT AVBL
STURGEON BAY   PTSUNNY  N/A N/A N/A MISG        N/A
MANITOWOC      NOT AVBL
SHEBOYGAN      SUNNY     86  70  58 W12       29.99S HX  90
$$

LMZ563-521-522-541>543-021900-
LAKESHORE

STATION/POSITION TIME  TEMP    WIND        PRES    VSBY  WAVE
                       AIR SEA DIR/SP/G                  HT/PER
                 (UTC) (F)     (DEG/KT/KT) (MB)    (MI)  (FT/S)
SHEBOYGAN LKSHOR 1700   76     170/ 12/ 14 1015.2F
KEWAUNEE LKSHORE 1700   63     170/  8/  9 1014.0F
ALGOMA MARINA    1729             CALM       N/A
NORTHPORT PIER   1700   70      CALM  /  2 1015.2R
N MID LAKE BUOY  1650   66 67  310/  2/  2 1014.9F         1
SISTER BAY LKSHO 1719   74     360/  5/  6   N/A
CHAMBERS ISLAND  1700   73     330/  1/  3 1014.9S
MENOMINEE LKSHOR 1700   70     140/  3/  3 1013.7S
$$



USA.gov is the U.S. government's official web portal to all federal, state and local government web resources and services.